Regional Weather Roundup
Issued by NWS

Home | Current Version | Previous Version | Text Only | Print | Product List | Glossary On
Versions: 1 2 3 4 5 6 7 8 9 10 11 12 13 14 15 16 17 18 19 20 21 22 23 24 25 26 27 28 29 30 31 32 33 34 35 36 37 38 39 40 41 42 43 44 45 46 47 48 49 50
000
ASUS43 KLOT 012210
RWRIL

ILLINOIS REGIONAL WEATHER ROUNDUP
NATIONAL WEATHER SERVICE CHICAGO/ROMEOVILLE IL
400 PM CST SUN FEB 01 2015

NOTE: "FAIR" INDICATES FEW OR NO CLOUDS BELOW 12,000 FEET WITH NO
SIGNIFICANT WEATHER AND/OR OBSTRUCTIONS TO VISIBILITY.

* THESE STATIONS ARE NOT UNDER NWS QUALITY CONTROL. THEY ALSO MAY NOT
  REPORT WEATHER SUCH AS PRECIPITATION OR FOG.

ILZ001-002-007-009-015-016-024-012300-
NORTHWEST ILLINOIS

CITY           SKY/WX    TMP DP  RH WIND       PRES   REMARKS
MOLINE         SNOW      21  17  84 N15G24    29.81R VSB 1/2 WCI   8
STERLING*        N/A    N/A N/A N/A MISG        N/A
SAVANNA*       LGT SNOW  18  13  81 N15G24    29.86R VSB 1   WCI   4
$$

ILZ003-004-008-010-011-017-018-012300-
NORTH CENTRAL ILLINOIS

CITY           SKY/WX    TMP DP  RH WIND       PRES   REMARKS
ROCKFORD       SNOW      22  17  81 NE26G35   29.83R VSB 1/4 WCI   5
FREEPORT*      LGT SNOW  15  11  85 N21G29    29.86R WCI  -3
ROCHELLE*      SNOW      21  19  93 NE25      29.77R VSB 1/4 WCI   4
DE KALB*       LGT SNOW  20  18  91 NE21G30   29.75F VSB 1   WCI   4
PERU*          CLOUDY    25  25 100 NE20G26   29.72R WCI  11
$$

ILZ005-006-012>014-019>023-012300-
NORTHEAST ILLINOIS

CITY           SKY/WX    TMP DP  RH WIND       PRES   REMARKS
CHICAGO-OHARE  SNOW      22  20  92 NE24G35   29.77R VSB 1/4 WCI   5
CHICAGO-MIDWAY SNOW      25  22  88 NE22G30   29.75R VSB 1/2 WCI  10
AURORA         HVY SNOW  24  19  81 NE29G39   29.72F VSB 1/8 WCI   7
LANSING*       LGT SNOW  26  24  93 NE12      29.70R VSB 1   WCI  15
JOLIET*        SNOW      25  23  91 NE13G18   29.70S VSB 1/2 WCI  14
WAUKEGAN       HVY SNOW  21  20  96 N16G25    29.82S VSB<1/4 WCI   7
DUPAGE AIRPORT HVY SNOW  23  19  85 NE23G33   29.73F VSB 1/4 WCI   7
KANKAKEE*      MIX PCPN  30  28  94 NE24      29.64S WCI  16
WHEELING       HVY SNOW  22  19  89 NE21G33   29.82R VSB 1/4 WCI   6
MORRIS*        SNOW      26  24  96 NE12G18   29.69R VSB 1/2 WCI  15
ROMEOVILLE*    SNOW      25  23  91 NE20G25   29.70S VSB 1/2 WCI  11
NORTHERLY ISL    N/A     24  23  96 N26         N/A  WCI   8
$$

LMZ740>746-012300-
SOUTHERN LAKE MICHIGAN

STATION/POSITION SKY/WX   TEMP    WIND        PRES    VSBY  WAVE
                          AIR SEA DIR/SP/G                  HT/PER
                          (F)     (DEG/KT/KT) (MB)    (MI)  (FT/S)
WAUKEGAN HARBOR            23      40/ 34/ 41   N/A
HARRISON CRIB              24      30/ 30/ 37   N/A
BURNHAM HARBOR             24      30/ 21/ 28   N/A
CALUMET HARBOR             25      20/ 23/ 29   N/A
MICHIGAN CITY              23      40/ 23/ 31   N/A
$$

ILZ025>027-034>036-040-047-049-050-058-095>099-012300-
WEST-CENTRAL ILLINOIS

CITY           SKY/WX    TMP DP  RH WIND       PRES   REMARKS
QUINCY         LGT SNOW  29  25  85 N21       29.72R FOG     WCI  16
GALESBURG*     LGT SNOW  24  23  93 N25       29.74R VSB 3/4 WCI   8
MACOMB*        LGT SNOW  26  24  93 N24G31    29.75R WCI  11
JACKSONVILLE*  LGT SNOW  35  33  93 NW8       29.65S WCI  29
PITTSFIELD*    LGT SNOW  35  32  91 NW10      29.68R WCI  27
$$

ILZ028>032-037-038-041>044-048-051>054-059>061-012300-
CENTRAL ILLINOIS

CITY           SKY/WX    TMP DP  RH WIND       PRES   REMARKS
PONTIAC        LGT SNOW  30  28  95 NE29G36   29.65R VSB 3/4 WCI  15
BLOOMINGTON    LGT SNOW  33  32  96 NE12      29.62R VSB 3/4 WCI  24
DECATUR        CLOUDY    34  33  96 W8        29.61R WCI  27
PEORIA         LGT SNOW  30  25  81 NE15G26   29.68R VSB 3/4 WCI  19
LACON*         LGT SNOW  26  23  87 N16G25    29.70R VSB 3/4 WCI  13
LINCOLN*       LGT SNOW  34  33  96 N6        29.64R WCI  29
SPRINGFIELD    CLOUDY    34  32  92 NW8       29.64R WCI  27
TAYLORVILLE    CLOUDY    32  32 100 W8        29.62S WCI  25
$$

ILZ033-039-045-046-055>057-062-063-012300-
EAST-CENTRAL ILLINOIS

CITY           SKY/WX    TMP DP  RH WIND       PRES   REMARKS
CHAMPAIGN      FOG       33  32  96 W5        29.59S VSB 1/2 WCI  29
DANVILLE*      MIX PCPN  32  32 100 CALM      29.56F
RANTOUL*       CLOUDY    34  34  98 CALM      29.58F FOG
MATTOON        CLOUDY    36  34  92 W7        29.59S WCI  30
PARIS*         DRIZZLE   35  35 100 CALM      29.60S
$$

ILZ079-100>102-012300-
SOUTHWEST ILLINOIS

CITY           SKY/WX    TMP DP  RH WIND       PRES   REMARKS
BELLEVILLE     CLOUDY    41  41  99 NW9       29.65R
CAHOKIA*       CLOUDY    42  37  82 NW15      29.66R
SPARTA*        CLOUDY    42  39  89 NW9       29.66R
$$

ILZ064>066-069>071-074>076-080>082-084>086-088>090-092>094-012300-
SOUTH-CENTRAL ILLINOIS

CITY           SKY/WX    TMP DP  RH WIND       PRES   REMARKS
CARBONDALE     CLOUDY    46  43  89 W7        29.64S
CAIRO*         CLOUDY   N/A N/A N/A W9        29.66S
EFFINGHAM*     CLOUDY    39  37  91 W9        29.63S WCI  33
MARION         CLOUDY    48  45  87 SW12      29.64F
MT. VERNON     CLOUDY    43  37  81 W10       29.64R
CENTRALIA*     CLOUDY    41  37  86 W9        29.64R
SALEM*         CLOUDY    42  39  88 W12       29.63R
METROPOLIS*    CLOUDY    49  49 100 W8G16     29.65R
$$

ILZ067-068-072-073-078-083-087-091-012300-
SOUTHEAST ILLINOIS

CITY           SKY/WX    TMP DP  RH WIND       PRES   REMARKS
LAWRENCEVILLE  CLOUDY    44  44 100 W15       29.61S FOG
FLORA*         CLOUDY    41  39  93 W13       29.63R
FAIRFIELD*     CLOUDY    43  42  95 W7        29.62R
HARRISBURG*    CLOUDY    47  46  99 W8        29.64S
ROBINSON*      DRIZZLE   42  41  98 W14G20    29.61S
CARMI*         CLOUDY    47  46  97 W10G18    29.62S
$$

ABBREVIATIONS USED IN REMARKS
   TC - TEMPERATURE IN CELSIUS
  WCI - WIND CHILL INDEX
   HX - HEAT INDEX
  VSB - VISIBILITY
$$



USA.gov is the U.S. government's official web portal to all federal, state and local government web resources and services.